Ogden Hill AFB, UT

11:32 AM MDT on September 20, 2017 (GMT -0600)
Hill Air Force Base

Weather History for KHIF - November, 2011

Change the Weather History Date:

Saturday, November 26, 2011

  Actual Average Record
Temperature  
Mean Temperature 32 °F -  
Max Temperature 39 °F 40 °F 57 °F (1998)
Min Temperature 24 °F 27 °F 8 °F (2010)
Degree Days  
Heating Degree Days 34    
Moisture  
Dew Point 11 °F    
Average Humidity 45    
Maximum Humidity 56    
Minimum Humidity 30    
Precipitation  
Precipitation 0.00 in - - ()
Sea Level Pressure  
Sea Level Pressure 30.67 in    
Wind  
Wind Speed 7 mph (NE)    
Max Wind Speed 13 mph    
Max Gust Speed -    
Visibility 10 miles    
Events      
Averages and records for this station are not official NWS values.
T = Trace of Precipitation, MM = Missing Value Source: NWS Daily Summary

Daily Weather History Graph

Daily Weather History Graph

Search for Another Location

Airport or City:

Trip Planner

Search our weather history database for the weather conditions in past years. The results will help you decide how hot, cold, wet, or windy it might be!

Date:

Astronomy

Nov. 26, 2011 Rise Set
Actual Time 7:28 AM MST 5:01 PM MST
Civil Twilight 6:57 AM MST 5:32 PM MST
Nautical Twilight 6:23 AM MST 6:06 PM MST
Astronomical Twilight 5:50 AM MST 6:39 PM MST
Moon 9:03 AM MST (11/26) 6:36 PM MST (11/26)
Length of Visible Light 10h 34m
Length of Day
9h 33m
Waxing Crescent, 3% of the Moon is Illuminated
Nov 26
Waxing Crescent
Dec 2
First Quarter
Dec 10
Full
Dec 17
Last Quarter
Dec 24
New

Hourly Weather History & Observations

Time (MST) Temp. Windchill Dew Point Humidity Pressure Visibility Wind Dir Wind Speed Gust Speed Precip Events Conditions
12:55 AM 31.1 °F 22.4 °F 7.5 °F 37% 30.49 in 10.0 mi WNW 10.4 mph - N/A   Clear
1:55 AM 27.0 °F - 12.4 °F 54% 30.53 in 10.0 mi Calm Calm - N/A   Clear
2:55 AM 25.9 °F 19.2 °F 12.0 °F 56% 30.58 in 10.0 mi East 5.8 mph - N/A   Clear
3:55 AM 25.3 °F 18.5 °F 9.3 °F 51% 30.59 in 10.0 mi East 5.8 mph - N/A   Clear
4:55 AM 25.5 °F 15.5 °F 9.3 °F 50% 30.62 in 10.0 mi ENE 10.4 mph - N/A   Clear
5:55 AM 25.0 °F 16.3 °F 9.3 °F 52% 30.66 in 10.0 mi ENE 8.1 mph - N/A   Clear
6:55 AM 25.0 °F 14.2 °F 8.6 °F 50% 30.68 in 10.0 mi East 11.5 mph - N/A   Clear
7:55 AM 24.4 °F 13.0 °F 8.2 °F 50% 30.69 in 10.0 mi ENE 12.7 mph - N/A   Clear
8:55 AM 26.6 °F 15.7 °F 8.6 °F 47% 30.71 in 10.0 mi ENE 12.7 mph - N/A   Clear
9:55 AM 30.4 °F 21.0 °F 9.3 °F 41% 30.72 in 10.0 mi ENE 11.5 mph - N/A   Clear
10:55 AM 34.2 °F 26.2 °F 9.7 °F 36% 30.72 in 10.0 mi ENE 10.4 mph - N/A   Clear
11:55 AM 36.1 °F - 10.0 °F 34% 30.71 in 10.0 mi Calm Calm - N/A   Clear
12:55 PM 38.5 °F - 9.7 °F 31% 30.68 in 10.0 mi Calm Calm - N/A   Clear
1:55 PM 39.6 °F 37.4 °F 9.9 °F 30% 30.68 in 10.0 mi WNW 3.5 mph - N/A   Clear
2:55 PM 39.9 °F - 10.9 °F 31% 30.68 in 10.0 mi Calm Calm - N/A   Clear
3:55 PM 39.7 °F 35.6 °F 12.2 °F 32% 30.69 in 10.0 mi West 5.8 mph - N/A   Clear
4:55 PM 35.6 °F 29.9 °F 14.2 °F 42% 30.70 in 10.0 mi West 6.9 mph - N/A   Clear
5:55 PM 33.6 °F 29.4 °F 13.8 °F 44% 30.72 in 10.0 mi WNW 4.6 mph - N/A   Clear
6:55 PM 32.7 °F 29.6 °F 12.2 °F 43% 30.73 in 10.0 mi North 3.5 mph - N/A   Clear
7:55 PM 31.1 °F - 14.0 °F 49% 30.73 in 10.0 mi Calm Calm - N/A   Clear
8:55 PM 29.1 °F 20.6 °F 14.7 °F 55% 30.73 in 10.0 mi ENE 9.2 mph - N/A   Clear
9:55 PM 29.7 °F 22.0 °F 13.6 °F 51% 30.70 in 10.0 mi ENE 8.1 mph - N/A   Clear
10:55 PM 29.3 °F 20.8 °F 14.0 °F 53% 30.69 in 10.0 mi ENE 9.2 mph - N/A   Clear
11:55 PM 28.9 °F 19.2 °F 13.6 °F 53% 30.68 in 10.0 mi ENE 11.5 mph - N/A   Clear